Fryeburg, ME

4:12 AM EST on February 28, 2017 (GMT -0500)
Eastern Slopes Regional

Weather History for KIZG - May, 2013

Change the Weather History Date:

Sunday, May 19, 2013

  Actual Average Record
Temperature  
Mean Temperature 50 °F -  
Max Temperature 62 °F 65 °F 87 °F (2003)
Min Temperature 39 °F 39 °F 28 °F (2002)
Degree Days  
Heating Degree Days 16    
Moisture  
Dew Point 45 °F    
Average Humidity 89    
Maximum Humidity 100    
Minimum Humidity 62    
Precipitation  
Precipitation 0.12 in - - ()
Sea Level Pressure  
Sea Level Pressure 30.31 in    
Wind  
Wind Speed 2 mph (ESE)    
Max Wind Speed 6 mph    
Max Gust Speed -    
Visibility 8 miles    
Events Fog , Rain    
Averages and records for this station are not official NWS values.
T = Trace of Precipitation, MM = Missing Value Source: NWS Daily Summary

Daily Weather History Graph

Daily Weather History Graph

Search for Another Location

Airport or City:

Trip Planner

Search our weather history database for the weather conditions in past years. The results will help you decide how hot, cold, wet, or windy it might be!

Date:

Astronomy

May. 19, 2013 Rise Set
Actual Time 5:13 AM EDT 8:07 PM EDT
Civil Twilight 4:39 AM EDT 8:41 PM EDT
Nautical Twilight 3:56 AM EDT 9:25 PM EDT
Astronomical Twilight 3:06 AM EDT 10:15 PM EDT
Moon 1:56 PM EDT (5/19) 1:48 AM EDT (5/19)
Length of Visible Light 16h 02m
Length of Day
14h 54m
Waxing Gibbous, 65% of the Moon is Illuminated
May 19
Waxing Gibbous
May 25
Full
May 31
Last Quarter
Jun 8
New
Jun 16
First Quarter

Hourly Weather History & Observations

Time (EDT) Temp. Windchill Dew Point Humidity Pressure Visibility Wind Dir Wind Speed Gust Speed Precip Events Conditions
12:54 AM 44.1 °F - 42.1 °F 93% 30.33 in 10.0 mi Calm Calm - N/A   Mostly Cloudy
1:54 AM 43.0 °F - 41.0 °F 93% 30.32 in 10.0 mi Calm Calm - N/A   Mostly Cloudy
2:24 AM 39.2 °F - 39.2 °F 100% 30.31 in 1.8 mi Calm Calm - N/A   Partly Cloudy
2:26 AM 39.2 °F - 39.2 °F 100% 30.31 in 1.0 mi Calm Calm - N/A   Mist
2:33 AM 39.2 °F 37.0 °F 39.2 °F 100% 30.31 in 0.5 mi NW 3.5 mph - N/A Fog Fog
2:37 AM 41.0 °F 38.0 °F 39.2 °F 93% 30.31 in 1.5 mi WNW 4.6 mph - N/A   Partly Cloudy
2:39 AM 39.2 °F 35.9 °F 39.2 °F 100% 30.31 in 3.0 mi WNW 4.6 mph - N/A   Partly Cloudy
2:54 AM 39.9 °F 37.8 °F 39.0 °F 97% 30.32 in 7.0 mi WNW 3.5 mph - N/A   Partly Cloudy
3:04 AM 39.2 °F 37.0 °F 39.2 °F 100% 30.31 in 1.0 mi WNW 3.5 mph - N/A   Mist
3:11 AM 39.2 °F - 39.2 °F 100% 30.31 in 0.5 mi Calm Calm - N/A Fog Fog
3:16 AM 39.2 °F - 39.2 °F 100% 30.31 in 2.0 mi Calm Calm - N/A   Mostly Cloudy
3:23 AM 39.2 °F - 39.2 °F 100% 30.31 in 10.0 mi Calm Calm - N/A   Overcast
3:54 AM 42.1 °F - 42.1 °F 100% 30.33 in 10.0 mi Calm Calm - N/A   Overcast
4:54 AM 45.0 °F - 43.0 °F 93% 30.35 in 10.0 mi Calm Calm - N/A   Overcast
5:54 AM 46.0 °F 44.8 °F 44.1 °F 93% 30.35 in 10.0 mi North 3.5 mph - N/A   Overcast
6:54 AM 46.9 °F - 44.1 °F 90% 30.36 in 10.0 mi Calm Calm - N/A   Overcast
8:54 AM 48.0 °F - 44.1 °F 86% 30.38 in 10.0 mi Calm Calm - N/A   Overcast
9:54 AM 48.9 °F - 45.0 °F 86% 30.38 in 10.0 mi Calm Calm - N/A   Overcast
10:54 AM 51.1 °F - 46.0 °F 83% 30.38 in 10.0 mi East 3.5 mph - N/A   Overcast
11:06 AM 51.8 °F - 44.6 °F 76% 30.37 in 10.0 mi Calm Calm - N/A   Overcast
11:54 AM 54.0 °F - 46.0 °F 75% 30.38 in 10.0 mi East 3.5 mph - N/A   Overcast
12:49 PM 57.2 °F - 46.4 °F 67% 30.35 in 10.0 mi East 4.6 mph - N/A   Mostly Cloudy
12:54 PM 57.9 °F - 46.9 °F 67% 30.35 in 10.0 mi ENE 5.8 mph - N/A   Scattered Clouds
1:54 PM 60.1 °F - 46.9 °F 62% 30.32 in 10.0 mi Variable 3.5 mph - N/A   Clear
4:54 PM 60.1 °F - 48.9 °F 67% 30.28 in 10.0 mi SE 5.8 mph - N/A   Clear
5:54 PM 59.0 °F - 48.9 °F 69% 30.27 in 10.0 mi SSE 3.5 mph - N/A   Mostly Cloudy
6:54 PM 57.0 °F - 50.0 °F 77% 30.27 in 10.0 mi SSE 4.6 mph - N/A   Overcast
7:54 PM 53.1 °F - 48.9 °F 86% 30.27 in 10.0 mi East 5.8 mph - 0.00 in Rain Light Rain
8:54 PM 52.0 °F - 48.9 °F 89% 30.28 in 10.0 mi SSE 4.6 mph - 0.01 in Rain Light Rain
9:28 PM 51.8 °F - 50.0 °F 94% 30.27 in 8.0 mi Calm Calm - 0.03 in Rain Light Rain
9:54 PM 50.0 °F - 48.9 °F 96% 30.27 in 6.0 mi SE 3.5 mph - 0.06 in Rain Light Rain
10:05 PM 50.0 °F - 48.2 °F 94% 30.26 in 7.0 mi ESE 3.5 mph - 0.01 in Rain Light Rain
10:20 PM 50.0 °F - 48.2 °F 94% 30.27 in 7.0 mi ESE 4.6 mph - 0.02 in Rain Light Rain
10:32 PM 50.0 °F - 48.2 °F 94% 30.26 in 7.0 mi ESE 3.5 mph - 0.04 in Rain Light Rain
10:54 PM 50.0 °F - 48.9 °F 96% 30.26 in 9.0 mi ESE 4.6 mph - 0.05 in Rain Light Rain
11:17 PM 50.0 °F - 48.2 °F 94% 30.24 in 10.0 mi Calm Calm - 0.01 in Rain Light Rain
11:41 PM 50.0 °F - 48.2 °F 94% 30.23 in 10.0 mi SSE 3.5 mph - 0.01 in Rain Light Rain